Location: Augirein
(42.9320°N, 0.9181°E)
Time: 13:44:35
(UTC+00:00)

USA 308 - Pass Details

Date: 20 June 2021
Orbit: 566 x 576 km, 54.0° (Epoch: 13 July)

Event Time Altitude Azimuth Distance (km) Brightness Sun altitude
Exits shadow 02:28:03 17° 261° (W) 1,445 4.5 -15.2°
Maximum altitude 02:31:00 47° 329° (NNW) 759 3.7 -14.9°
Drops below altitude 10° 02:35:06 10° 44° (NE) 1,865 6.9 -14.4°
Sets 02:37:26 0° 51° (NE) 2,765 8.1 -14.2°
